JAL252 RJOA-RJTT

Flight info

Callsign JAL252
Flight time N/A
Altitude 37000
Route BOLIG IKUNO MIDER Y71 XAC
Aircraft B738/M-SDE2E3FGHIRWXY/LB1

Departure

Time 2026-04-30 14:25
Airport Hiroshima Airport (RJOA)

Arrival

Time N/A
Airport Tokyo Haneda International Airport (RJTT)
Time Latitude Longitude Altitude Speed Heading
2026-04-30 13:44 34.43899 132.92082 1078 ft 0 kts 360°
2026-04-30 14:15 34.43876 132.92083 1078 ft 4 kts 360°
2026-04-30 14:16 34.43849 132.92083 1077 ft 3 kts 360°
2026-04-30 14:16 34.43827 132.92084 1077 ft 4 kts 348°
2026-04-30 14:16 34.43802 132.92094 1077 ft 4 kts 330°
2026-04-30 14:16 34.43787 132.92105 1077 ft 1 kts 326°
2026-04-30 14:17 34.43785 132.92107 1077 ft 1 kts 326°
2026-04-30 14:19 34.43785 132.92087 1077 ft 4 kts 243°
2026-04-30 14:19 34.43771 132.92025 1078 ft 11 kts 266°
2026-04-30 14:19 34.43770 132.91926 1077 ft 12 kts 271°
2026-04-30 14:20 34.43771 132.91828 1077 ft 12 kts 269°
2026-04-30 14:20 34.43771 132.91732 1077 ft 11 kts 270°
2026-04-30 14:20 34.43771 132.91547 1076 ft 11 kts 269°
2026-04-30 14:21 34.43771 132.91458 1076 ft 10 kts 270°
2026-04-30 14:21 34.43771 132.91333 1079 ft 22 kts 270°
2026-04-30 14:21 34.43772 132.90896 1081 ft 25 kts 270°
2026-04-30 14:22 34.43772 132.90695 1083 ft 23 kts 269°
2026-04-30 14:22 34.43761 132.90367 1078 ft 18 kts 248°
2026-04-30 14:22 34.43658 132.90320 1079 ft 13 kts 174°
2026-04-30 14:23 34.43606 132.90425 1081 ft 0 kts 90°
2026-04-30 14:24 34.43606 132.90676 1078 ft 66 kts 90°
2026-04-30 14:24 34.43608 132.91515 1079 ft 131 kts 90°
2026-04-30 14:25 34.43627 132.94139 2128 ft 164 kts 91°
2026-04-30 14:25 34.43614 132.96871 3826 ft 163 kts 96°
2026-04-30 14:26 34.43933 132.99882 4714 ft 223 kts 62°
2026-04-30 14:26 34.45236 133.01170 4953 ft 262 kts 32°
2026-04-30 14:26 34.48789 133.03325 5916 ft 301 kts 29°
2026-04-30 14:27 34.50691 133.04461 6676 ft 309 kts 28°
2026-04-30 14:27 34.52627 133.05633 7534 ft 311 kts 27°
2026-04-30 14:27 34.54564 133.06820 8410 ft 313 kts 27°
2026-04-30 14:28 34.58495 133.09260 10050 ft 321 kts 26°
2026-04-30 14:28 34.60524 133.10529 10535 ft 338 kts 26°
2026-04-30 14:28 34.62692 133.11887 10738 ft 361 kts 26°
2026-04-30 14:28 34.64955 133.13310 11317 ft 371 kts 26°
2026-04-30 14:29 34.69587 133.16232 12813 ft 378 kts 26°
2026-04-30 14:29 34.73510 133.18710 13951 ft 387 kts 26°
2026-04-30 14:30 34.81596 133.23824 16112 ft 401 kts 25°
2026-04-30 14:31 34.86520 133.27207 17261 ft 414 kts 40°
2026-04-30 14:31 34.89427 133.33174 18513 ft 415 kts 78°
2026-04-30 14:31 34.90149 133.36600 19014 ft 420 kts 79°
2026-04-30 14:32 34.91535 133.43633 20002 ft 430 kts 80°
2026-04-30 14:32 34.92233 133.47154 20439 ft 436 kts 80°
2026-04-30 14:32 34.92962 133.50768 20879 ft 441 kts 79°
2026-04-30 14:33 34.93706 133.54416 21343 ft 446 kts 79°
2026-04-30 14:33 34.95234 133.61818 22292 ft 455 kts 79°
2026-04-30 14:33 34.96014 133.65590 22708 ft 461 kts 80°
2026-04-30 14:34 34.96799 133.69399 23130 ft 466 kts 79°
2026-04-30 14:34 34.97593 133.73248 23591 ft 469 kts 79°
2026-04-30 14:34 34.98380 133.77076 23978 ft 472 kts 80°
2026-04-30 14:34 34.99181 133.80977 24404 ft 475 kts 80°
2026-04-30 14:35 35.00519 133.87521 25017 ft 481 kts 80°
2026-04-30 14:35 35.01604 133.92844 25503 ft 486 kts 80°
2026-04-30 14:35 35.02419 133.96852 25887 ft 488 kts 81°
2026-04-30 14:36 35.03241 134.00894 26321 ft 490 kts 81°
2026-04-30 14:36 35.04064 134.04950 26653 ft 494 kts 81°
2026-04-30 14:36 35.04610 134.07651 26858 ft 496 kts 81°
2026-04-30 14:36 35.05714 134.13110 27297 ft 501 kts 81°
2026-04-30 14:37 35.06549 134.17247 27656 ft 504 kts 81°
2026-04-30 14:37 35.07388 134.21415 27991 ft 506 kts 81°
2026-04-30 14:37 35.07953 134.24234 28222 ft 508 kts 81°
2026-04-30 14:37 35.08785 134.28393 28567 ft 510 kts 81°
2026-04-30 14:38 35.09627 134.32611 28907 ft 513 kts 81°
2026-04-30 14:38 35.10473 134.36856 29236 ft 516 kts 81°
2026-04-30 14:38 35.11323 134.41126 29563 ft 518 kts 81°
2026-04-30 14:38 35.12175 134.45410 29829 ft 521 kts 81°
2026-04-30 14:39 35.13029 134.49717 30131 ft 523 kts 81°
2026-04-30 14:39 35.13888 134.54059 30332 ft 526 kts 82°
2026-04-30 14:39 35.14751 134.58426 30466 ft 531 kts 81°
2026-04-30 14:40 35.16483 134.67216 30961 ft 534 kts 81°
2026-04-30 14:40 35.17354 134.71653 31157 ft 538 kts 81°
2026-04-30 14:40 35.18231 134.76126 31330 ft 541 kts 81°
2026-04-30 14:40 35.19065 134.80619 31497 ft 540 kts 86°
2026-04-30 14:41 35.19424 134.85097 31759 ft 532 kts 96°
2026-04-30 14:41 35.19312 134.89585 32084 ft 523 kts 104°
2026-04-30 14:41 35.18730 134.93922 32309 ft 513 kts 112°
2026-04-30 14:41 35.17901 134.98175 32537 ft 514 kts 114°
2026-04-30 14:42 35.17052 135.02424 32765 ft 515 kts 113°
2026-04-30 14:42 35.16206 135.06694 33014 ft 517 kts 113°
2026-04-30 14:42 35.15373 135.10981 33235 ft 519 kts 113°
2026-04-30 14:42 35.14551 135.15282 33478 ft 520 kts 112°
2026-04-30 14:43 35.13749 135.19532 33742 ft 521 kts 112°
2026-04-30 14:43 35.12935 135.23853 33936 ft 523 kts 112°
2026-04-30 14:43 35.12119 135.28194 34129 ft 524 kts 112°
2026-04-30 14:43 35.11302 135.32525 34416 ft 522 kts 112°
2026-04-30 14:44 35.10490 135.36833 34752 ft 519 kts 113°
2026-04-30 14:44 35.09679 135.41117 35090 ft 516 kts 113°
2026-04-30 14:44 35.08867 135.45383 35314 ft 516 kts 113°
2026-04-30 14:44 35.08050 135.49652 35538 ft 516 kts 113°
2026-04-30 14:45 35.06388 135.58232 35872 ft 518 kts 113°
2026-04-30 14:45 35.05576 135.62494 36233 ft 515 kts 113°
2026-04-30 14:45 35.04778 135.66683 36560 ft 512 kts 114°
2026-04-30 14:46 35.03968 135.70901 36815 ft 510 kts 114°
2026-04-30 14:46 35.03152 135.75116 36957 ft 511 kts 114°
2026-04-30 14:46 35.01507 135.83597 36949 ft 514 kts 113°
2026-04-30 14:47 35.00066 135.92155 36944 ft 513 kts 111°
2026-04-30 14:47 34.98740 136.00686 36920 ft 509 kts 111°
2026-04-30 14:48 34.97393 136.09127 36958 ft 507 kts 111°
2026-04-30 14:48 34.96008 136.17545 36991 ft 512 kts 111°
2026-04-30 14:49 34.94585 136.26124 36997 ft 520 kts 111°
2026-04-30 14:49 34.93142 136.34836 36989 ft 528 kts 111°
2026-04-30 14:50 34.90940 136.48092 36981 ft 535 kts 110°
2026-04-30 14:51 34.88704 136.61460 36958 ft 537 kts 110°
2026-04-30 14:52 34.86475 136.74780 36965 ft 537 kts 110°
2026-04-30 14:52 34.84222 136.88170 36999 ft 538 kts 110°
2026-04-30 14:53 34.82216 137.01630 37002 ft 542 kts 105°
2026-04-30 14:54 34.80313 137.19816 36998 ft 543 kts 105°
2026-04-30 14:55 34.78784 137.33467 36996 ft 541 kts 105°
2026-04-30 14:56 34.76709 137.51577 37010 ft 540 kts 105°
2026-04-30 14:57 34.75150 137.65087 37018 ft 539 kts 105°
2026-04-30 14:58 34.73320 137.83231 37045 ft 541 kts 103°
2026-04-30 14:58 34.72022 137.96803 37049 ft 541 kts 104°
2026-04-30 15:00 34.71387 138.19849 37098 ft 550 kts 95°
2026-04-30 15:00 34.71525 138.29063 37043 ft 530 kts 95°
2026-04-30 15:01 34.71583 138.37630 36905 ft 495 kts 96°
2026-04-30 15:01 34.71589 138.41791 36581 ft 490 kts 96°
2026-04-30 15:01 34.71582 138.50144 34949 ft 501 kts 95°
2026-04-30 15:02 34.71580 138.54449 33767 ft 512 kts 95°
2026-04-30 15:02 34.71582 138.58820 32516 ft 520 kts 95°
2026-04-30 15:03 34.71600 138.72165 28924 ft 529 kts 95°
2026-04-30 15:03 34.71606 138.80907 27384 ft 509 kts 95°
2026-04-30 15:04 34.71570 138.89364 25818 ft 491 kts 95°
2026-04-30 15:04 34.71493 139.01616 23472 ft 471 kts 94°
2026-04-30 15:05 34.71424 139.13223 21226 ft 444 kts 93°
2026-04-30 15:06 34.71370 139.20651 20187 ft 436 kts 93°
2026-04-30 15:06 34.71313 139.27969 19149 ft 430 kts 92°
2026-04-30 15:07 34.71255 139.35181 18100 ft 424 kts 92°
2026-04-30 15:07 34.71948 139.42192 17048 ft 420 kts 73°
2026-04-30 15:08 34.74378 139.48567 16045 ft 413 kts 60°
2026-04-30 15:08 34.78600 139.57544 14618 ft 401 kts 60°
2026-04-30 15:09 34.81306 139.63431 13633 ft 395 kts 61°
2026-04-30 15:09 34.83932 139.69180 12618 ft 387 kts 62°
2026-04-30 15:10 34.86498 139.74813 11794 ft 376 kts 62°
2026-04-30 15:11 34.94117 139.82897 10564 ft 352 kts 31°
2026-04-30 15:11 34.98252 139.85820 10258 ft 335 kts 32°
2026-04-30 15:12 35.04062 139.90001 9608 ft 319 kts 33°
2026-04-30 15:13 35.07854 139.92752 9015 ft 315 kts 33°
2026-04-30 15:14 35.15335 139.97902 7911 ft 305 kts 14°
2026-04-30 15:14 35.21718 139.98203 6912 ft 307 kts
2026-04-30 15:16 35.31405 139.94360 5123 ft 291 kts 329°
2026-04-30 15:17 35.38072 139.89638 3578 ft 249 kts 330°
2026-04-30 15:18 35.44374 139.85160 2173 ft 176 kts 332°
2026-04-30 15:19 35.47359 139.83041 1506 ft 163 kts 332°